Location: G?julap?du
(16.5372°N, 81.0979°E)
Time: 23:39:38
(UTC+00:00)

Cosmos 841 Rocket - Pass Details

Date: 14 April 2026
Orbit: 742 x 767 km, 74.0° (Epoch: 9 May)

Event Time Altitude Azimuth Distance (km) Brightness Sun altitude
Exits shadow 22:36:18 29° 171° (S) 1,348 4.6 -25.0°
Maximum altitude 22:38:49 60° 102° (ESE) 845 3.9 -24.4°
Drops below altitude 10° 22:43:49 10° 23° (NNE) 2,254 6.4 -23.3°
Sets 22:46:12 0° 20° (NNE) 3,182 7.2 -22.8°
